Time,TemperatureF,DewpointF,PressureIn,WindDirection,WindDirectionDegrees,WindSpeedMPH,WindSpeedGustMPH,Humidity,HourlyPrecipIn,Conditions,Clouds,dailyrainin,SoftwareType,DateUTC
2013-01-24 19:12:00,45.0,39.0,29.29,NW,316,5.0,5.0,79,0.00,,,0.00,,2013-01-25 04:12:00,
2013-01-24 19:32:00,45.0,40.0,29.29,NW,309,4.0,4.0,81,0.00,,,0.00,,2013-01-25 04:32:00,
2013-01-24 19:51:00,44.0,39.0,29.29,NW,308,3.0,0.0,81,0.00,,,0.00,,2013-01-25 04:51:00,
2013-01-24 20:03:00,44.0,39.0,29.29,NW,313,2.0,5.0,82,0.00,,,0.00,,2013-01-25 05:03:00,
2013-01-24 20:12:00,45.0,40.0,29.29,NW,313,1.0,5.0,84,0.00,,,0.00,,2013-01-25 05:12:00,
2013-01-24 20:22:00,45.0,40.0,29.29,NW,313,1.0,5.0,84,0.00,,,0.00,,2013-01-25 05:22:00,
2013-01-24 20:31:00,45.0,41.0,29.29,NW,305,3.0,6.0,85,0.00,,,0.00,,2013-01-25 05:31:00,
2013-01-24 20:52:00,45.0,41.0,29.29,WNW,293,4.0,5.0,86,0.00,,,0.00,,2013-01-25 05:52:00,
2013-01-24 21:01:00,45.0,41.0,29.29,WNW,290,2.0,0.0,86,0.00,,,0.00,,2013-01-25 06:01:00,
2013-01-24 21:31:00,45.0,41.0,29.32,WNW,294,4.0,4.0,85,0.00,,,0.00,,2013-01-25 06:31:00,
2013-01-24 21:51:00,45.0,41.0,29.32,WNW,296,2.0,0.0,85,0.00,,,0.00,,2013-01-25 06:51:00,
2013-01-24 22:01:00,44.0,39.0,29.32,WNW,298,1.0,0.0,84,0.00,,,0.00,,2013-01-25 07:01:00,
2013-01-24 22:11:00,44.0,39.0,29.32,WNW,298,1.0,0.0,84,0.00,,,0.00,,2013-01-25 07:11:00,
2013-01-24 22:21:00,44.0,40.0,29.32,WNW,298,1.0,0.0,86,0.00,,,0.00,,2013-01-25 07:21:00,
2013-01-24 22:31:00,43.0,39.0,29.32,WNW,298,0.0,0.0,86,0.00,,,0.00,,2013-01-25 07:31:00,
2013-01-24 22:41:00,43.0,39.0,29.32,WNW,298,0.0,0.0,86,0.00,,,0.00,,2013-01-25 07:41:00,
2013-01-24 22:51:00,43.0,39.0,29.32,WNW,298,0.0,0.0,87,0.00,,,0.00,,2013-01-25 07:51:00,
2013-01-24 23:01:00,43.0,39.0,29.32,WNW,298,0.0,0.0,87,0.00,,,0.00,,2013-01-25 08:01:00,
2013-01-24 23:11:00,44.0,40.0,29.32,WNW,298,0.0,0.0,87,0.00,,,0.00,,2013-01-25 08:11:00,
2013-01-24 23:31:00,44.0,40.0,29.32,WNW,295,0.0,0.0,87,0.00,,,0.00,,2013-01-25 08:31:00,